Вернуться в каталог

KUIPER-00054

АктивенСвязьLEO
NORAD 64514·PAYLOAD·🇺🇸 United States

Запущен Jun 23, 2025 с Cape Canaveral Space Force Station

Loading…

Ближайшие Пролёты (ближайшие 24 часа)

TLE

СвежийSource: CelesTrak SupGP

Эпоха: Sep 14, 2026, 15:19 UTC

1 64514C 25134Q   26257.63824074 -.00003195  00000+0 -41828-3 0  2573
2 64514  51.8968 102.5083 0000959 108.4243 122.5086 14.79925760    18

Отслеживайте KUIPER-00054 в реальном времени с AllMySat

Download on the App Store